Flag for France Weather past 2 weeks in Bourges, France

Now
62 °F

Overcast.


Feels Like: 62 °F
Forecast: 47 / 64 °F
Wind: 5 mph from Northwest

Location: Bourges

Current Time: May 25, 2015 at 11:44:17 AM

Latest Report: May 25, 2015 at 11:00 AM


Visibility: 11 mi

Pressure: 30.08 "Hg

Humidity: 75%

Dew point: 54 °F

Location of BourgesLocation

Historic Weather in Bourges — Graph

°F

Bourges temperature yesterday

Maximum temperature yesterday: 71 °F (at 6:00 PM)
Minimum temperature yesterday: 53 °F (at 6:00 AM)
Average temperature yesterday: 62 °F

Past Weeks' High & Low Weather Summary

 TemperatureHumidityPressure
High84 °F (May 11, 5:00 PM)99% (May 17, 4:00 AM)30.40 "Hg (May 17, 4:00 AM)
Low40 °F (May 21, 6:00 AM)37% (May 18, 8:00 PM)29.82 "Hg (May 18, 8:00 PM)
Average59 °F70%30.14 "Hg
* Reported May 10 10:00 AM — May 25 10:00 AM, Bourges, Weather by CustomWeather, © 2015

Note: Actual official high and low records may vary slightly from our data, if they occured in-between our weather recording intervals... More about our weather records

Advertising

Bourges weather history for previous 24 hours

 ConditionsComfort  
Time TempWeatherWind HumidityBarometerVisibility
10:00 AM
Mon, May 25
60 °FOvercast.2 mph80%30.08 "Hg11 mi
9:00 AM57 °FOvercast.3 mph86%30.09 "Hg11 mi
8:00 AM56 °FOvercast.3 mph85%30.08 "Hg12 mi
7:00 AM54 °FOvercast.2 mph85%30.09 "Hg12 mi
6:00 AM54 °FOvercast.3 mph83%30.09 "Hg12 mi
5:00 AM55 °FOvercast.No wind80%30.09 "Hg12 mi
4:00 AM55 °FOvercast.1 mph77%30.09 "Hg12 mi
3:00 AM55 °FOvercast.5 mph79%30.09 "Hg12 mi
2:00 AM55 °FOvercast.3 mph77%30.10 "Hg12 mi
1:00 AM56 °FCool.3 mph73%30.10 "Hg12 mi
12:00 AM58 °FCool.2 mph70%30.10 "Hg12 mi
11:00 PM
Sun, May 24
61 °FCool.3 mph67%30.10 "Hg12 mi
10:00 PM63 °FMild.3 mph63%30.09 "Hg12 mi
9:00 PM65 °FMild.3 mph57%30.07 "Hg12 mi
8:00 PM68 °FOvercast.6 mph52%30.07 "Hg12 mi
7:00 PM69 °FMild.6 mph53%30.06 "Hg12 mi
6:00 PM71 °FPartly sunny.7 mph50%30.06 "Hg12 mi
5:00 PM69 °FOvercast.8 mph52%30.08 "Hg16 mi
4:00 PM69 °FOvercast.7 mph56%30.09 "Hg12 mi
3:00 PM68 °FOvercast.7 mph57%30.09 "Hg12 mi
2:00 PM68 °FOvercast.5 mph61%30.10 "Hg12 mi
1:00 PM67 °FPartly sunny.7 mph64%30.11 "Hg11 mi
12:00 PM64 °FPartly sunny.5 mph68%30.12 "Hg9 mi
11:00 AM66 °FScattered clouds.3 mph69%30.12 "Hg7 mi
Weather by CustomWeather, © 2015

See weather overviewHow to use our weather pages